Orlando, FL

6:38 PM EST on February 20, 2017 (GMT -0500)
Orlando International

Weather History for KMCO - September, 2012

Change the Weather History Date:

Sunday, September 9, 2012

  Actual Average Record
Temperature  
Mean Temperature 79 °F 82 °F  
Max Temperature 82 °F 90 °F 99 °F (1921)
Min Temperature 76 °F 74 °F 64 °F (1893)
Degree Days  
Heating Degree Days 0 0  
Month to date heating degree days 0 0  
Since 1 July heating degree days 0 0  
Cooling Degree Days 14 17  
Month to date cooling degree days 151 153  
Year to date cooling degree days 2756 2546  
Growing Degree Days 28 (Base 50)    
Moisture  
Dew Point 76 °F    
Average Humidity 90    
Maximum Humidity 100    
Minimum Humidity 79    
Precipitation  
Precipitation 0.11 in 0.21 in 2.73 in (1964)
Month to date precipitation 3.44 1.91  
Year to date precipitation 32.05 38.52  
Sea Level Pressure  
Sea Level Pressure 29.93 in    
Wind  
Wind Speed 10 mph (SW)    
Max Wind Speed 24 mph    
Max Gust Speed 31 mph    
Visibility 10 miles    
Events Rain , Thunderstorm    
T = Trace of Precipitation, MM = Missing Value Source: NWS Daily Summary

Daily Weather History Graph

Daily Weather History Graph

Search for Another Location

Airport or City:

Trip Planner

Search our weather history database for the weather conditions in past years. The results will help you decide how hot, cold, wet, or windy it might be!

Date:

Astronomy

Sep. 09, 2012 Rise Set
Actual Time 7:07 AM EDT 7:36 PM EDT
Civil Twilight 6:43 AM EDT 8:00 PM EDT
Nautical Twilight 6:16 AM EDT 8:28 PM EDT
Astronomical Twilight 5:47 AM EDT 8:56 PM EDT
Moon 12:57 AM EDT (9/9) 2:59 PM EDT (9/9)
Length of Visible Light 13h 16m
Length of Day
12h 29m
Last Quarter, 39% of the Moon is Illuminated
Sep 9
Last Quarter
Sep 15
New
Sep 22
First Quarter
Sep 29
Full
Oct 8
Last Quarter

Hourly Weather History & Observations

Time (EDT) Temp. Heat Index Dew Point Humidity Pressure Visibility Wind Dir Wind Speed Gust Speed Precip Events Conditions
12:53 AM 78.1 °F - 73.9 °F 87% 29.91 in 10.0 mi SSW 6.9 mph - N/A   Clear
1:53 AM 77.0 °F - 75.0 °F 94% 29.89 in 10.0 mi South 6.9 mph - N/A   Clear
2:53 AM 75.9 °F - 75.0 °F 97% 29.89 in 10.0 mi South 3.5 mph - N/A   Clear
3:53 AM 78.1 °F - 75.9 °F 93% 29.89 in 10.0 mi South 10.4 mph - N/A   Scattered Clouds
4:53 AM 78.1 °F - 75.9 °F 93% 29.89 in 10.0 mi South 9.2 mph - N/A   Scattered Clouds
5:53 AM 78.1 °F - 75.9 °F 93% 29.89 in 10.0 mi South 8.1 mph - N/A   Scattered Clouds
6:53 AM 78.1 °F - 75.9 °F 93% 29.89 in 10.0 mi SSW 12.7 mph - N/A   Mostly Cloudy
7:53 AM 79.0 °F - 75.9 °F 90% 29.90 in 10.0 mi SSW 12.7 mph - N/A   Mostly Cloudy
8:53 AM 80.1 °F 85.8 °F 77.0 °F 90% 29.89 in 10.0 mi SSW 19.6 mph 25.3 mph N/A   Mostly Cloudy
9:53 AM 81.0 °F 87.9 °F 77.0 °F 88% 29.91 in 10.0 mi SW 20.7 mph 29.9 mph 0.00 in Rain Light Rain
10:53 AM 78.1 °F - 77.0 °F 96% 29.93 in 9.0 mi WSW 11.5 mph - 0.03 in Rain Light Rain
11:00 AM 78.8 °F - 77.0 °F 94% 29.93 in 9.0 mi West 9.2 mph - 0.01 in Rain Light Rain
11:27 AM 78.8 °F - 75.2 °F 89% 29.94 in 10.0 mi WSW 11.5 mph - 0.02 in Rain Light Rain
11:40 AM 77.0 °F - 75.2 °F 94% 29.94 in 10.0 mi West 11.5 mph - 0.02 in Rain Light Rain
11:53 AM 77.0 °F - 75.9 °F 96% 29.94 in 10.0 mi West 12.7 mph - 0.03 in Rain Light Rain
12:13 PM 77.0 °F - 75.2 °F 94% 29.95 in 9.0 mi West 16.1 mph - 0.02 in Rain Light Rain
12:24 PM 75.2 °F - 75.2 °F 100% 29.95 in 10.0 mi West 15.0 mph - 0.02 in Rain Light Rain
12:53 PM 75.9 °F - 73.9 °F 94% 29.94 in 10.0 mi WSW 13.8 mph 20.7 mph 0.03 in Rain Light Rain
1:53 PM 77.0 °F - 75.0 °F 94% 29.93 in 10.0 mi WSW 10.4 mph - 0.02 in   Mostly Cloudy
2:53 PM 78.1 °F - 73.9 °F 87% 29.90 in 10.0 mi West 13.8 mph 20.7 mph N/A   Mostly Cloudy
3:53 PM 81.0 °F 87.3 °F 75.9 °F 85% 29.90 in 10.0 mi West 10.4 mph - N/A   Mostly Cloudy
4:53 PM 82.0 °F 89.4 °F 75.9 °F 82% 29.90 in 10.0 mi West 12.7 mph - N/A   Mostly Cloudy
5:53 PM 81.0 °F 87.3 °F 75.9 °F 85% 29.91 in 10.0 mi West 10.4 mph - N/A   Mostly Cloudy
6:53 PM 81.0 °F 87.9 °F 77.0 °F 88% 29.92 in 10.0 mi WSW 9.2 mph - N/A   Mostly Cloudy
7:53 PM 79.0 °F - 77.0 °F 94% 29.93 in 10.0 mi SSW 5.8 mph - N/A   Scattered Clouds
8:22 PM 78.8 °F - 77.0 °F 94% 29.93 in 10.0 mi SW 3.5 mph - N/A   Mostly Cloudy
8:53 PM 78.1 °F - 77.0 °F 96% 29.94 in 10.0 mi SSW 3.5 mph - N/A   Scattered Clouds
9:50 PM 77.0 °F - 77.0 °F 100% 29.96 in 10.0 mi SSW 3.5 mph - N/A Thunderstorm Thunderstorm
9:53 PM 78.1 °F - 77.0 °F 96% 29.96 in 10.0 mi SW 3.5 mph - N/A Thunderstorm Thunderstorm
10:10 PM 78.8 °F - 77.0 °F 94% 29.97 in 10.0 mi Calm Calm - N/A   Mostly Cloudy
10:43 PM 78.8 °F - 77.0 °F 94% 29.97 in 10.0 mi Calm Calm - N/A   Mostly Cloudy
10:49 PM 78.8 °F - 77.0 °F 94% 29.97 in 10.0 mi North 4.6 mph - N/A   Mostly Cloudy
10:53 PM 79.0 °F - 78.1 °F 97% 29.97 in 10.0 mi North 4.6 mph - N/A   Mostly Cloudy
11:11 PM 78.8 °F - 75.2 °F 89% 29.97 in 10.0 mi Calm Calm - 0.00 in Rain Light Rain
11:53 PM 78.1 °F - 77.0 °F 96% 29.97 in 10.0 mi West 4.6 mph - 0.00 in   Mostly Cloudy